| time (UTC) | temp F | wind direction | speed knots | gust knots | rain 1hr in | rain 24hr in | rain mn in | humidity % | barometer mb |
| 20260502220057 | 47 | 342 | 1.7 | 7.0 | 0.00 | 0.00 | 0.00 | 48 | 1016.4 |
| 20260502214555 | 48 | 329 | 2.6 | 7.8 | 0.00 | 0.00 | 0.00 | 49 | 1016.6 |
| 20260502213055 | 47 | 285 | 0.9 | 8.7 | 0.00 | 0.00 | 0.00 | 49 | 1016.7 |
| 20260502211556 | 47 | 360 | 1.7 | 7.8 | 0.00 | 0.00 | 0.00 | 49 | 1016.7 |
| 20260502210106 | 47 | 360 | 2.6 | 9.6 | 0.00 | 0.00 | 0.00 | 49 | 1017.0 |
| 20260502204558 | 47 | 273 | 1.7 | 10.4 | 0.00 | 0.00 | 0.00 | 48 | 1017.0 |
| 20260502203057 | 47 | 288 | 1.7 | 6.1 | 0.00 | 0.00 | 0.00 | 47 | 1017.0 |
| 20260502201557 | 47 | 276 | 3.5 | 10.4 | 0.00 | 0.00 | 0.00 | 49 | 1017.2 |
| 20260502200057 | 46 | 360 | 1.7 | 11.3 | 0.00 | 0.00 | 0.00 | 51 | 1017.4 |
| 20260502194555 | 46 | 360 | 1.7 | 10.4 | 0.00 | 0.00 | 0.00 | 50 | 1017.6 |
| 20260502193102 | 47 | 348 | 2.6 | 11.3 | 0.00 | 0.00 | 0.00 | 49 | 1017.7 |
| 20260502191601 | 47 | 360 | 2.6 | 7.8 | 0.00 | 0.00 | 0.00 | 50 | 1017.8 |
| 20260502190110 | 48 | 279 | 0.9 | 9.6 | 0.00 | 0.00 | 0.00 | 48 | 1017.8 |
| 20260502184601 | 46 | 302 | 3.5 | 10.4 | 0.00 | 0.00 | 0.00 | 49 | 1017.9 |
| 20260502183110 | 47 | 312 | 3.5 | 13.0 | 0.00 | 0.00 | 0.00 | 46 | 1017.9 |
| 20260502181555 | 49 | 262 | 3.5 | 10.4 | 0.00 | 0.00 | 0.00 | 50 | 1018.0 |
| 20260502163059 | 45 | 314 | 3.5 | 10.4 | 0.00 | 0.00 | 0.00 | 48 | 1018.8 |
| 20260502161621 | 44 | 246 | 1.7 | 7.0 | 0.00 | 0.00 | 0.00 | 52 | 1018.7 |
| 20260502151609 | 43 | 348 | 3.5 | 10.4 | 0.00 | 0.00 | 0.00 | 52 | 1018.7 |
| 20260502150106 | 42 | 360 | 2.6 | 9.6 | 0.00 | 0.00 | 0.00 | 54 | 1018.7 |
| 20260502130111 | 38 | 360 | 3.5 | 8.7 | 0.00 | 0.00 | 0.00 | 70 | 1018.8 |
| 20260502123100 | 37 | 360 | 1.7 | 7.8 | 0.00 | 0.00 | 0.00 | 73 | 1018.7 |
| 20260502121559 | 36 | 360 | 1.7 | 10.4 | 0.00 | 0.00 | 0.00 | 74 | 1018.6 |
| 20260502114557 | 35 | 360 | 2.6 | 7.8 | 0.00 | 0.00 | 0.00 | 75 | 1018.6 |
| 20260502113057 | 35 | 5 | 2.6 | 7.8 | 0.00 | 0.00 | 0.00 | 76 | 1018.4 |
| 20260502111606 | 34 | 5 | 2.6 | 7.0 | 0.00 | 0.00 | 0.00 | 77 | 1018.2 |
| 20260502110058 | 34 | 9 | 2.6 | 7.0 | 0.00 | 0.00 | 0.00 | 78 | 1018.2 |
| 20260502104557 | 34 | 337 | 0.9 | 4.3 | 0.00 | 0.00 | 0.00 | 78 | 1018.2 |
| 20260502103057 | 34 | 352 | 0.0 | 2.6 | 0.00 | 0.00 | 0.00 | 76 | 1018.2 |
| 20260502101556 | 35 | 0 | 0.0 | 2.6 | 0.00 | 0.00 | 0.00 | 75 | 1018.0 |
| 20260502090114 | 37 | 0 | 0.0 | 3.5 | 0.00 | 0.00 | 0.00 | 70 | 1017.7 |
| 20260502070107 | 39 | 0 | 0.9 | 3.5 | 0.00 | 0.00 | 0.00 | 66 | 1017.4 |
| 20260502064558 | 39 | 336 | 0.0 | 5.2 | 0.00 | 0.00 | 0.00 | 66 | 1017.4 |
| 20260502063057 | 39 | 343 | 0.9 | 4.3 | 0.00 | 0.00 | 0.00 | 67 | 1017.5 |
| 20260502061555 | 39 | 345 | 0.9 | 4.3 | 0.00 | 0.00 | 0.00 | 66 | 1017.5 |
| 20260502060058 | 40 | 0 | 0.0 | 2.6 | 0.00 | 0.00 | 0.00 | 65 | 1017.7 |
| 20260502054556 | 40 | 0 | 0.0 | 3.5 | 0.00 | 0.00 | 0.00 | 65 | 1017.8 |
| 20260502053119 | 40 | 44 | 0.9 | 4.3 | 0.00 | 0.00 | 0.00 | 65 | 1017.8 |
| 20260502051607 | 40 | 317 | 2.6 | 7.0 | 0.00 | 0.00 | 0.00 | 66 | 1017.8 |
| 20260502050057 | 40 | 352 | 0.9 | 7.0 | 0.00 | 0.00 | 0.00 | 66 | 1017.8 |
| 20260502044557 | 40 | 341 | 0.9 | 7.0 | 0.00 | 0.00 | 0.00 | 67 | 1017.6 |
| 20260502043112 | 40 | 328 | 0.9 | 2.6 | 0.00 | 0.00 | 0.00 | 70 | 1017.5 |
| 20260502041631 | 40 | 0 | 0.0 | 2.6 | 0.00 | 0.00 | 0.00 | 70 | 1017.4 |
| 20260502040059 | 40 | 24 | 0.0 | 4.3 | 0.00 | 0.00 | 0.00 | 69 | 1017.2 |
| 20260502034556 | 40 | 24 | 0.9 | 7.0 | 0.00 | 0.00 | 0.00 | 71 | 1017.1 |
| 20260502033106 | 40 | 352 | 0.9 | 8.7 | 0.00 | 0.00 | 0.00 | 70 | 1017.0 |
| 20260502031601 | 41 | 355 | 3.5 | 9.6 | 0.00 | 0.00 | 0.00 | 68 | 1016.9 |
| 20260502030100 | 42 | 5 | 1.7 | 5.2 | 0.00 | 0.00 | 0.00 | 69 | 1016.9 |
| 20260502024557 | 42 | 346 | 0.0 | 1.7 | 0.00 | 0.00 | 0.00 | 69 | 1017.0 |
| 20260502023059 | 42 | 5 | 0.9 | 3.5 | 0.00 | 0.00 | 0.00 | 69 | 1016.8 |
| 20260502021600 | 42 | 331 | 0.9 | 3.5 | 0.00 | 0.00 | 0.00 | 69 | 1016.8 |
| 20260502020110 | 42 | 348 | 1.7 | 7.8 | 0.00 | 0.00 | 0.00 | 67 | 1016.8 |
| 20260502014557 | 42 | 339 | 2.6 | 7.0 | 0.00 | 0.00 | 0.00 | 67 | 1016.7 |
| 20260502013101 | 43 | 321 | 2.6 | 7.8 | 0.00 | 0.00 | 0.00 | 66 | 1016.6 |
| 20260502011608 | 43 | 360 | 1.7 | 7.0 | 0.00 | 0.00 | 0.00 | 66 | 1016.5 |
| 20260502010104 | 43 | 333 | 0.9 | 7.0 | 0.00 | 0.00 | 0.00 | 66 | 1016.4 |
| 20260502004600 | 43 | 360 | 0.9 | 3.5 | 0.00 | 0.00 | 0.00 | 67 | 1016.2 |
| 20260502003056 | 43 | 327 | 0.0 | 5.2 | 0.00 | 0.00 | 0.00 | 66 | 1016.2 |
| 20260502001602 | 43 | 48 | 1.7 | 5.2 | 0.00 | 0.00 | 0.00 | 67 | 1016.1 |
| 20260502000056 | 43 | 337 | 0.0 | 7.8 | 0.00 | 0.00 | 0.00 | 66 | 1016.1 |
| 20260501234600 | 44 | 360 | 2.6 | 7.8 | 0.00 | 0.00 | 0.00 | 66 | 1015.9 |
| 20260501233106 | 44 | 344 | 2.6 | 7.8 | 0.00 | 0.00 | 0.00 | 65 | 1015.8 |
| 20260501231626 | 44 | 35 | 2.6 | 8.7 | 0.00 | 0.00 | 0.00 | 65 | 1015.8 |
| 20260501230058 | 44 | 360 | 2.6 | 8.7 | 0.00 | 0.00 | 0.00 | 65 | 1015.8 |
| 20260501224559 | 45 | 352 | 3.5 | 8.7 | 0.00 | 0.00 | 0.00 | 64 | 1015.8 |
| 20260501223119 | 45 | 288 | 2.6 | 7.8 | 0.00 | 0.00 | 0.00 | 63 | 1015.7 |
| 20260501221558 | 45 | 360 | 3.5 | 8.7 | 0.00 | 0.00 | 0.00 | 62 | 1015.7 |